Presure
184 180 178 128 98 93 100 96 92 110 104 102 124 155 184 179 161 173 179 136 139 149 158 161 192 185 184 176 174 178 187 203 194 191 195 212 212 205 199 205 210 208 206 204 202
145 158 159 154 111 101 154 186 183 189 188 87 181 184 154 169 180 176 177 167 178 177 198 197 178 158 182 212 190 247 229 199 191 173 176 182 184 186 217 214 206 201 199 200 210
190 92 176 86 90 195 185 188 112 183 172 184 168 162 177 179 177 104 123 132 121 120 122 130 228 178 202 188 216 239 223 248 235 219 183 177 175 170 168 170 183 178 183 208 210
90 136 170 173 180 179 175 182 180 173 177 172 170 173 118 115 112 132 171 138 166 182 170 171 194 214 197 189 210 257 244 228 216 219 241 238 229 219 211 206 199 174 170 170 171
168 152 158 165 192 182 180 178 174 172 173 169 176 127 116 128 134 176 146 173 176 136 160 211 239 185 182 226 202 213 218 251 256 244 246 230 231 226 227 226 226 225 224 212 207
176 176 136 125 109 143 135 184 177 189 140 120 110 121 172 148 164 159 165 113 187 172 225 202 220 157 187 202 217 247 174 201 217 188 205 235 198 246 268 268 254 259 256 254 249
190 154 182 183 175 133 119 130 126 113 124 114 117 183 163 166 168 171 125 196 190 173 156 189 197 193 152 175 239 263 172 139 215 252 212 224 241 253 199 202 221 232 236 211 235
168 170 183 146 135 128 123 123 118 120 116 120 159 175 152 180 168 170 126 169 161 186 186 156 165 142 228 196 170 163 199 177 178 202 173 196 206 190 176 196 151 221 175 227 178
167 167 145 141 135 134 148 125 117 121 121 142 171 185 178 164 182 155 174 171 170 170 162 150 188 197 197 187 181 166 173 188 188 171 208 207 167 205 182 162 159 163 181 199 221
165 176 158 145 176 170 174 146 138 131 135 182 126 171 168 171 156 134 178 154 180 157 183 142 150 176 168 190 150 193 194 160 123 190 160 174 153 172 165 206 191 172 148 173 166
179 176 180 173 186 170 158 145 146 118 181 108 135 152 164 168 169 143 167 191 190 168 141 129 191 172 152 187 178 201 169 159 178 194 192 180 173 204 197 169 148 157 137 214 143
177 177 173 189 152 166 138 140 151 179 165 125 126 141 170 158 163 166 183 185 177 177 134 127 176 204 187 189 168 184 205 142 177 164 193 173 164 189 205 170 182 205 173 157 153
173 180 160 126 117 128 125 126 145 122 150 135 146 172 167 170 150 162 160 172 180 165 135 179 179 201 147 188 181 198 188 170 182 198 172 178 190 209 170 165 165 197 173 195 204
176 179 147 131 127 132 126 128 167 135 126 164 167 169 160 163 160 175 159 164 190 144 172 153 183 166 183 166 199 175 197 179 182 164 183 175 185 189 175 169 193 197 175 215 180
149 144 158 137 133 149 136 160 135 151 153 134 161 166 161 169 178 160 166 183 175 160 184 167 169 187 162 201 193 165 141 183 162 155 192 175 163 146 189 161 169 163 184 169 233
149 101 164 135 159 143 154 167 154 160 157 114 163 165 162 171 167 157 147 159 129 163 171 172 150 160 183 176 187 181 151 178 163 164 168 171 168 177 179 177 194 225 187 203 230
154 117 143 144 146 155 162 158 151 84 157 162 160 160 156 150 158 146 155 172 121 166 170 147 164 162 141 184 187 185 171 152 175 160 169 166 170 160 164 177 182 218 172 236 188
167 147 159 177 166 140 139 157 85 161 155 152 153 156 164 140 161 142 169 162 133 158 165 166 164 146 178 194 183 175 156 178 189 158 151 163 163 176 172 167 218 180 217 211 234
166 177 170 179 149 169 163 162 156 150 156 162 159 159 150 147 157 169 141 159 121 142 149 159 160 177 182 194 171 186 152 170 167 172 165 158 169 174 210 170 216 180 183 232 198
160 182 157 163 160 165 162 121 156 164 152 155 154 157 144 149 148 169 157 166 141 154 152 167 158 178 194 178 183 191 170 170 163 169 167 162 165 200 171 181 166 243 187 188 240
163 169 160 161 161 166 161 156 146 165 152 159 148 154 139 139 138 154 169 161 136 159 157 161 163 159 168 162 165 178 170 174 147 168 162 167 161 174 162 200 221 178 193 221 246
170 120 182 175 151 163 174 172 158 163 156 156 143 147 138 137 140 147 154 157 160 154 150 162 161 168 182 171 178 171 165 181 150 163 157 174 169 156 176 178 176 177 197 238 248
179 166 171 180 183 160 167 155 132 158 153 149 156 133 132 140 141 146 152 160 141 165 153 150 162 184 159 181 179 176 165 158 166 174 161 171 158 170 170 185 231 199 206 249 255
136 160 169 162 176 164 160 154 151 134 154 152 155 133 132 156 139 148 136 133 159 144 132 159 159 160 175 166 179 171 158 162 158 157 145 161 155 167 206 194 210 211 241 242 273
188 169 158 161 169 162 163 152 138 166 156 160 159 131 133 149 137 150 144 156 158 147 163 159 170 156 172 152 178 170 164 167 165 160 147 158 161 155 174 194 183 228 231 240 264
158 177 155 165 171 156 162 84 163 151 155 146 159 136 148 134 130 142 144 152 152 157 131 151 168 162 177 175 176 181 172 159 158 154 166 157 156 165 175 228 209 223 220 249 267
170 169 162 159 162 163 153 154 149 148 159 145 157 144 141 147 151 137 131 154 146 165 132 165 169 159 169 138 151 167 169 160 164 169 158 159 185 183 167 187 205 206 245 251 300
Wind_Speed
21 21 22 25 24 20 23 21 23 23 33 33 37 19 16 20 27 24 26 44 43 41 40 40 37 38 39 41 43 42 40 37 41 41 39 36 40 43 46 47 48 51 54 57 61
26 22 21 13 23 25 15 10 14 13 10 27 13 10 24 23 21 23 27 32 32 34 32 33 37 41 35 33 38 26 28 40 43 46 45 43 45 45 40 44 47 51 55 58 59
19 18 14 18 22 11 10 10 31 11 12 9 15 19 16 19 21 40 39 36 38 38 39 38 31 37 30 36 33 28 29 24 29 36 48 48 47 50 51 52 53 54 55 56 59
21 26 21 15 14 15 16 12 13 13 12 13 14 15 34 37 41 34 27 37 35 34 40 43 33 24 34 38 27 32 30 28 30 30 31 32 34 39 42 46 50 58 61 62 64
27 27 23 19 14 17 16 15 16 13 12 15 14 29 36 34 33 25 39 31 34 39 43 31 36 34 35 30 35 24 26 27 29 32 30 35 35 36 38 40 43 47 50 54 58
23 21 23 21 24 21 20 12 15 12 21 27 30 31 21 29 26 32 31 40 30 33 34 30 40 47 29 25 29 30 37 25 21 24 27 27 40 30 29 34 39 43 47 51 55
19 26 16 14 16 23 26 21 23 27 28 29 32 20 25 26 28 27 40 31 31 31 38 34 41 32 53 43 44 39 28 50 41 41 28 33 36 35 26 38 39 41 45 45 52
25 21 16 25 26 28 28 27 27 29 31 32 26 24 30 28 29 30 41 32 34 32 29 39 34 53 48 28 44 32 37 21 35 40 19 29 50 32 27 42 55 45 43 50 50
27 25 29 26 27 29 24 32 28 32 33 31 25 24 26 30 33 35 32 33 34 29 32 39 36 44 47 36 19 40 26 52 48 23 46 62 37 62 54 37 47 40 43 55 63
29 21 26 25 20 19 15 29 31 33 33 20 31 26 28 32 34 36 38 36 38 32 34 38 40 37 27 42 33 46 51 42 54 53 48 44 61 33 50 54 69 36 62 73 44
23 24 21 22 18 18 24 30 30 27 15 26 29 34 32 34 38 38 40 41 44 35 27 42 54 36 43 56 40 55 32 52 61 68 66 62 38 67 67 42 81 78 70 82 69
25 25 23 20 21 20 28 29 30 15 25 33 37 40 33 38 38 42 44 45 44 45 31 43 53 65 59 63 28 59 61 62 54 35 62 67 52 88 65 60 84 75 70 82 89
26 23 25 34 28 28 34 31 19 32 27 38 38 31 33 37 38 43 43 40 49 40 31 55 58 65 35 65 58 67 64 42 75 65 47 50 71 66 64 51 80 88 74 105 84
26 23 31 36 31 36 35 36 24 35 36 28 31 32 36 39 41 44 43 46 54 37 52 51 65 54 67 56 65 68 59 77 75 43 74 60 78 73 64 75 97 87 92 92 77
38 36 28 37 37 31 38 28 41 29 36 40 33 36 38 41 41 45 46 52 55 47 64 61 62 72 64 62 67 52 61 77 58 45 62 87 49 65 94 78 79 59 118 76 101
39 27 30 37 26 34 28 17 27 28 33 29 32 33 38 40 44 47 44 52 30 57 63 67 51 65 77 54 68 73 53 74 69 78 88 78 84 103 104 77 105 102 112 117 105
39 30 38 38 36 28 23 27 23 29 25 30 33 34 36 38 46 47 47 54 36 62 66 52 73 70 52 73 66 68 77 60 83 76 90 92 92 73 71 88 117 105 85 108 118
36 28 34 25 25 37 40 28 27 23 32 38 38 36 39 39 50 44 55 57 38 62 68 71 76 56 79 64 66 71 70 75 74 73 60 94 86 113 107 89 104 102 94 117 124
36 31 31 26 39 24 22 22 30 38 32 28 34 37 38 41 50 51 51 58 43 51 61 71 78 80 78 65 78 65 66 79 83 89 87 87 102 105 100 109 105 128 118 120 132
38 33 38 30 31 27 27 27 28 22 36 34 34 37 36 42 48 53 56 61 53 64 68 75 69 81 70 78 72 63 80 84 86 91 89 95 94 98 111 128 93 109 111 132 131
38 36 33 32 30 28 29 28 38 21 36 31 34 37 36 40 45 56 60 62 54 65 68 72 77 79 80 77 75 78 82 82 73 96 89 96 82 116 94 112 114 120 140 130 133
41 31 35 35 36 30 27 23 29 25 33 35 33 38 40 42 49 57 61 63 65 67 68 77 78 81 77 84 83 81 84 81 83 96 84 111 107 76 120 129 121 121 141 131 135
43 38 36 36 34 33 30 31 29 30 35 37 36 39 41 46 51 58 58 67 60 70 72 68 81 78 80 80 84 79 78 84 85 96 97 111 98 114 121 117 128 133 136 140 137
40 38 38 36 35 34 33 32 35 37 38 39 38 41 45 50 54 59 50 56 69 66 63 78 79 81 84 84 84 82 84 88 93 97 70 106 94 119 114 120 131 123 141 136 137
46 43 38 38 37 35 36 34 34 31 36 34 39 43 47 51 55 56 63 70 71 73 77 80 84 80 86 78 86 83 85 91 94 97 77 105 94 91 133 123 130 130 133 135 142
43 44 40 40 39 38 38 36 35 37 38 39 41 40 46 52 49 58 62 68 71 75 56 69 84 87 82 86 91 84 85 89 92 94 111 103 100 120 134 122 126 126 141 141 136
45 44 43 39 41 41 39 38 36 39 41 40 43 43 46 53 54 60 60 70 69 74 57 83 84 81 80 74 86 89 84 91 99 105 99 110 113 126 119 133 133 138 139 136 136
Wind_Direction
215 222 233 239 245 257 256 268 276 277 284 289 282 289 307 302 288 302 301 290 291 292 295 297 303 304 302 303 302 300 292 286 287 286 282 281 280 281 281 281 280 278 278 276 275
241 238 248 247 259 265 256 248 257 263 273 284 294 310 288 293 296 296 302 299 311 305 317 314 307 300 303 309 300 322 304 288 284 295 294 290 290 288 282 280 279 279 279 278 276
207 257 230 267 266 215 223 229 276 261 279 280 289 291 298 295 305 299 303 305 302 300 297 297 346 310 308 312 319 325 305 310 297 291 293 294 288 287 288 286 284 282 280 279 278
254 250 245 243 235 234 251 238 254 270 276 278 288 289 298 296 298 303 317 308 312 326 322 322 319 332 316 308 325 339 332 313 300 306 311 305 298 291 288 285 282 279 279 280 279
237 249 251 250 203 222 234 240 253 262 273 282 298 289 296 300 303 323 308 326 326 308 315 350 358 322 318 353 327 342 340 330 322 320 312 317 311 307 303 299 295 293 289 281 279
231 237 251 255 257 258 270 250 258 280 282 288 294 298 306 303 310 310 322 297 335 322 13 354 359 316 324 350 358 360 311 340 329 315 304 321 307 307 308 301 299 297 296 295 292
245 244 251 234 232 257 269 268 276 287 283 293 298 318 302 309 314 322 307 336 337 323 316 348 351 3 305 325 15 1 294 305 11 357 354 341 342 334 341 325 332 322 311 312 302
232 238 255 247 251 255 265 270 277 281 291 296 293 316 307 325 320 328 308 326 320 338 344 320 328 311 10 20 325 300 24 324 318 358 318 3 1 343 296 353 303 314 312 307 285
234 240 243 249 255 259 260 269 278 282 288 293 311 332 328 314 333 319 330 329 331 326 325 310 356 359 9 349 329 357 276 355 350 286 346 357 286 352 321 305 299 321 290 332 318
232 240 245 252 250 247 261 273 276 281 291 322 298 327 322 325 314 307 335 317 337 318 338 310 312 346 326 359 319 1 8 282 318 342 303 320 322 300 284 321 336 279 309 313 308
237 237 240 251 246 253 264 273 280 282 327 289 304 309 320 324 331 315 331 350 349 330 309 301 358 340 317 7 5 358 277 287 4 359 359 354 325 340 348 287 299 292 306 324 309
235 237 241 247 254 258 269 277 284 309 300 296 300 305 325 321 325 330 342 347 340 345 305 297 349 360 3 357 352 1 359 305 353 271 348 331 305 351 341 315 348 332 331 300 308
234 237 242 255 263 267 272 276 284 288 300 297 305 325 328 330 319 325 329 344 346 340 307 353 356 0 305 1 352 360 359 334 359 351 328 325 348 338 345 325 317 337 336 340 324
231 234 245 255 265 266 275 281 289 289 295 318 321 328 325 328 325 340 328 336 359 325 348 340 357 357 359 347 355 1 353 1 353 331 346 345 346 331 332 345 342 335 344 324 324
238 243 242 254 261 263 274 282 283 296 300 300 321 331 328 336 347 333 339 358 349 341 356 350 354 359 358 357 356 345 317 352 346 322 341 349 339 290 340 324 341 320 342 325 329
240 251 242 258 250 268 272 274 289 298 302 297 323 329 330 342 340 333 330 338 308 341 350 355 345 352 358 337 353 353 333 350 347 351 350 343 349 345 343 335 336 330 340 336 331
239 246 250 256 260 263 267 280 288 289 306 313 320 326 327 327 334 325 336 348 281 347 350 344 352 352 322 353 349 350 351 338 344 348 346 345 346 340 345 340 340 331 339 335 341
237 237 245 230 245 268 275 279 292 294 302 307 316 326 332 315 338 325 348 342 331 342 347 351 353 329 353 350 351 348 346 344 344 348 342 345 347 339 342 337 334 343 332 334 341
237 229 239 231 260 252 254 269 283 291 303 312 319 327 327 329 336 344 329 342 298 339 347 349 351 352 352 349 351 345 339 343 341 340 341 346 342 336 339 347 338 339 340 340 343
237 228 247 247 254 256 259 281 278 283 298 307 315 321 323 329 331 345 337 344 331 341 345 352 346 352 349 350 345 338 341 339 343 337 341 344 342 340 345 339 343 337 339 341 342
236 238 238 251 254 255 262 270 282 281 295 304 310 317 316 322 325 335 346 340 337 342 344 349 351 351 350 348 341 342 344 337 340 336 343 344 344 340 348 342 339 345 336 341 343
232 247 238 243 258 258 253 267 277 280 294 300 302 310 313 320 326 329 336 337 338 338 343 349 350 349 347 348 346 347 346 335 340 338 343 336 342 343 338 341 343 345 337 344 343
228 239 240 244 246 258 257 269 284 282 290 298 303 305 310 322 323 327 332 338 332 342 342 346 350 347 349 344 344 344 346 342 335 333 339 337 348 337 341 343 343 336 339 344 345
239 242 239 246 247 254 259 266 276 288 287 295 302 308 313 318 321 328 324 328 336 337 334 343 347 347 348 349 345 347 345 343 342 341 341 340 346 340 339 339 340 339 350 346 346
231 238 246 248 247 252 260 267 278 286 287 302 306 308 315 317 320 330 325 334 335 337 340 343 345 346 347 347 346 348 344 341 339 338 343 341 344 345 338 344 339 348 348 347 349
240 237 246 246 246 258 257 300 275 280 285 296 307 311 313 314 312 321 324 332 332 335 325 343 345 346 344 345 347 343 343 340 338 341 335 343 344 343 337 347 339 344 346 349 348
236 241 245 249 253 253 264 270 280 284 290 298 300 305 312 319 324 319 323 330 331 337 325 341 341 347 343 338 346 345 341 340 336 335 337 341 337 338 343 336 338 340 352 349 345